Eelde, Netherlands

6:33 PM CET on December 18, 2017 (GMT +0100)
Eelde

Weather History for EHGG - March, 2014

Change the Weather History Date:

Friday, March 21, 2014

  Actual Average Record
Temperature  
Mean Temperature 43 °F -  
Max Temperature 47 °F 51 °F 59 °F (2012)
Min Temperature 39 °F 35 °F 26 °F (2001)
Degree Days  
Heating Degree Days 22    
Moisture  
Dew Point 41 °F    
Average Humidity 83    
Maximum Humidity 100    
Minimum Humidity 64    
Precipitation  
Precipitation 0.51 in 0.07 in - ()
Sea Level Pressure  
Sea Level Pressure 29.69 in    
Wind  
Wind Speed 11 mph ()    
Max Wind Speed 20 mph    
Max Gust Speed -    
Visibility 7.1 miles    
Events Rain    
Averages and records for this station are not official NWS values.
T = Trace of Precipitation, MM = Missing Value Source: Averaged Metar Reports

Daily Weather History Graph

Daily Weather History Graph

Search for Another Location

Airport or City:

Trip Planner

Search our weather history database for the weather conditions in past years. The results will help you decide how hot, cold, wet, or windy it might be!

Date:

Astronomy

Mar. 21, 2014 Rise Set
Actual Time 6:34 AM CET 6:48 PM CET
Civil Twilight 5:59 AM CET 7:23 PM CET
Nautical Twilight 5:18 AM CET 8:04 PM CET
Astronomical Twilight 4:35 AM CET 8:47 PM CET
Moon No Moon Rise 8:37 AM CET (3/21)
Length of Visible Light 13h 23m
Length of Day
12h 14m
Waning Gibbous, 77% of the Moon is Illuminated
Mar 21
Waning Gibbous
Mar 24
Last Quarter
Mar 30
New
Apr 7
First Quarter
Apr 15
Full

Hourly Weather History & Observations

Time (CET) Temp. Windchill Dew Point Humidity Pressure Visibility Wind Dir Wind Speed Gust Speed Precip Events Conditions
12:00 AM 52 °F - 44 °F 67% 29.65 in 9 mi SW 15.7 mph - -   Scattered Clouds
12:25 AM 51.8 °F - 44.6 °F 76% 29.62 in 6.2 mi SW 16.1 mph - N/A   Unknown
12:55 AM 51.8 °F - 44.6 °F 76% 29.62 in 6.2 mi SW 18.4 mph - N/A   Unknown
1:00 AM 51 °F - 44 °F 70% 29.64 in 9 mi SW 20.1 mph - -   Partly Cloudy
1:25 AM 51.8 °F - 44.6 °F 76% 29.62 in 6.2 mi SW 18.4 mph - N/A   Scattered Clouds
1:55 AM 51.8 °F - 44.6 °F 76% 29.62 in 6.2 mi WSW 18.4 mph - N/A   Mostly Cloudy
2:00 AM 51 °F - 44 °F 69% 29.64 in 9 mi WSW 17.9 mph - -   Partly Cloudy
2:25 AM 51.8 °F - 44.6 °F 76% 29.62 in 6.2 mi WSW 17.3 mph - N/A   Overcast
2:55 AM 51.8 °F - 44.6 °F 76% 29.62 in 6.2 mi WSW 18.4 mph - N/A   Overcast
3:00 AM 52 °F - 45 °F 69% 29.64 in 8 mi WSW 17.9 mph - -   Overcast
3:25 AM 51.8 °F - 44.6 °F 76% 29.62 in 6.2 mi WSW 15.0 mph - N/A   Overcast
3:55 AM 50.0 °F - 46.4 °F 87% 29.62 in - WSW 16.1 mph - N/A   Drizzle
4:00 AM 49 °F - 47 °F 91% 29.65 in 3 mi WSW 15.7 mph - - Rain Drizzle
4:25 AM 50.0 °F - 48.2 °F 94% 29.62 in 3.7 mi WSW 11.5 mph - N/A Rain Light Rain
4:55 AM 50.0 °F - 48.2 °F 94% 29.62 in 3.1 mi WSW 13.8 mph - N/A Rain Light Rain Showers
5:00 AM 49 °F - 47 °F 92% 29.64 in 4 mi SW 13.4 mph - - Rain Rain
5:25 AM 50.0 °F - 48.2 °F 94% 29.62 in 3.7 mi SW 11.5 mph - N/A Rain Light Rain
5:55 AM 48.2 °F - 48.2 °F 100% 29.62 in 3.1 mi SW 11.5 mph - N/A Rain Light Rain
6:00 AM 49 °F - 47 °F 88% 29.64 in 3 mi West 8.9 mph - - Rain Heavy Rain
6:25 AM 48.2 °F - 46.4 °F 93% 29.62 in 6.2 mi West 9.2 mph - N/A Rain Light Rain
6:55 AM 46.4 °F 42.4 °F 44.6 °F 93% 29.62 in 6.2 mi West 8.1 mph - N/A Rain Light Rain
7:00 AM 47 °F - 45 °F 90% 29.65 in 6 mi West 6.7 mph - - Rain Rain
7:25 AM 46.4 °F 42.9 °F 44.6 °F 93% 29.65 in 6.2 mi West 6.9 mph - N/A Rain Light Rain
7:55 AM 46.4 °F 42.9 °F 44.6 °F 93% 29.65 in 6.2 mi West 6.9 mph - N/A Rain Light Rain
8:00 AM 46 °F - 44 °F 90% 29.65 in 7 mi West 6.7 mph - - Rain Light Rain
8:25 AM 46.4 °F 42.4 °F 42.8 °F 87% 29.65 in 6.2 mi West 8.1 mph - N/A Rain Light Rain
8:55 AM 44.6 °F 40.2 °F 42.8 °F 93% 29.65 in 6.2 mi West 8.1 mph - N/A Rain Light Rain Showers
9:00 AM 45 °F - 42 °F 86% 29.66 in 6 mi West 6.7 mph - - Rain Rain
9:25 AM 44.6 °F 40.7 °F 42.8 °F 93% 29.65 in 5.6 mi West 6.9 mph - N/A Rain Light Rain
9:55 AM 44.6 °F 40.7 °F 42.8 °F 93% 29.65 in 6.2 mi West 6.9 mph - N/A Rain Light Rain Showers
10:00 AM 45 °F - 43 °F 89% 29.66 in 7 mi West 6.7 mph - - Rain Rain
10:25 AM 44.6 °F 40.7 °F 42.8 °F 93% 29.65 in 6.2 mi WSW 6.9 mph - N/A Rain Light Rain
10:55 AM 44.6 °F 41.4 °F 42.8 °F 93% 29.62 in 6.2 mi SW 5.8 mph - N/A Rain Light Rain
11:00 AM 45 °F - 42 °F 87% 29.65 in 9 mi SW 6.7 mph - - Rain Rain
11:25 AM 44.6 °F 40.7 °F 41.0 °F 87% 29.62 in 6.2 mi WSW 6.9 mph - N/A Rain Light Rain Showers
11:55 AM 44.6 °F 40.2 °F 41.0 °F 87% 29.65 in 6.2 mi WSW 8.1 mph - N/A Rain Light Rain
12:00 PM 44 °F - 40 °F 82% 29.66 in 7 mi West 8.9 mph - - Rain Rain
12:25 PM 42.8 °F 38.6 °F 39.2 °F 87% 29.65 in 6.2 mi West 6.9 mph - N/A Rain Rain Showers
12:55 PM 42.8 °F 38.0 °F 41.0 °F 93% 29.65 in 6.2 mi WSW 8.1 mph - N/A Rain Rain Showers
1:00 PM 43 °F - 41 °F 88% 29.68 in 7 mi West 8.9 mph - - Rain Rain
1:25 PM 42.8 °F 37.0 °F 39.2 °F 87% 29.68 in 5.6 mi West 10.4 mph - N/A Rain Light Rain Showers
1:55 PM 41.0 °F 34.3 °F 39.2 °F 93% 29.71 in 5.6 mi WNW 11.5 mph - N/A Rain Light Rain Showers
2:00 PM 41 °F - 38 °F 85% 29.73 in 7 mi WNW 11.2 mph - - Rain Light Rain
2:25 PM 41.0 °F 34.3 °F 37.4 °F 87% 29.71 in 6.2 mi West 11.5 mph - N/A Rain Heavy Drizzle
2:55 PM 44.6 °F 40.7 °F 39.2 °F 81% 29.71 in 6.2 mi West 6.9 mph - N/A   Mostly Cloudy
3:00 PM 45 °F - 38 °F 68% 29.72 in 19 mi WNW 6.7 mph - - Rain Rain
3:25 PM 46.4 °F 42.4 °F 37.4 °F 71% 29.71 in 6.2 mi West 8.1 mph - N/A   Unknown
3:55 PM 46.4 °F 41.1 °F 37.4 °F 71% 29.71 in 6.2 mi SW 11.5 mph - N/A   Partly Cloudy
4:00 PM 46 °F - 38 °F 64% 29.74 in 19 mi SW 13.4 mph - -   Partly Cloudy
4:25 PM 46.4 °F 41.1 °F 39.2 °F 76% 29.74 in 6.2 mi SW 11.5 mph - N/A   Scattered Clouds
4:55 PM 48.2 °F - 41.0 °F 76% 29.74 in 6.2 mi SSW 11.5 mph - N/A   Mostly Cloudy
5:00 PM 47 °F - 40 °F 69% 29.76 in 25 mi SW 13.4 mph - -   Partly Cloudy
5:25 PM 46.4 °F 40.4 °F 39.2 °F 76% 29.74 in 6.2 mi SW 13.8 mph - N/A   Mostly Cloudy
5:55 PM 46.4 °F 40.4 °F 37.4 °F 71% 29.77 in 6.2 mi SW 13.8 mph - N/A   Unknown
6:00 PM 46 °F - 38 °F 65% 29.78 in 25 mi SW 11.2 mph - -   Partly Cloudy
6:25 PM 44.6 °F 38.8 °F 37.4 °F 76% 29.77 in 6.2 mi SW 11.5 mph - N/A   Partly Cloudy
6:55 PM 42.8 °F 37.0 °F 37.4 °F 81% 29.77 in 6.2 mi SW 10.4 mph - N/A   Unknown
7:00 PM 42 °F - 36 °F 74% 29.78 in 17 mi SW 8.9 mph - -   Partly Cloudy
7:25 PM 41.0 °F 35.2 °F 35.6 °F 81% 29.77 in 6.2 mi SW 9.2 mph - N/A   Unknown
7:55 PM 41.0 °F 36.4 °F 35.6 °F 81% 29.77 in 6.2 mi SSW 6.9 mph - N/A   Unknown
8:00 PM 41 °F - 36 °F 76% 29.78 in 15 mi SSW 8.9 mph - -  
8:25 PM 41.0 °F 35.8 °F 35.6 °F 81% 29.77 in 6.2 mi South 8.1 mph - N/A   Unknown
8:55 PM 41.0 °F 37.1 °F 35.6 °F 81% 29.77 in 6.2 mi South 5.8 mph - N/A   Unknown
9:00 PM 40 °F - 36 °F 81% 29.78 in 13 mi SSE 6.7 mph - -  
9:25 PM 39.2 °F 34.2 °F 35.6 °F 87% 29.77 in 6.2 mi South 6.9 mph - N/A   Unknown
9:55 PM 39.2 °F 34.2 °F 35.6 °F 87% 29.74 in 6.2 mi South 6.9 mph - N/A   Unknown
10:00 PM 40 °F - 36 °F 81% 29.77 in 15 mi South 6.7 mph - -  
10:25 PM 39.2 °F 33.0 °F 35.6 °F 87% 29.74 in 6.2 mi South 9.2 mph - N/A   Unknown
10:55 PM 39.2 °F 33.6 °F 35.6 °F 87% 29.74 in 6.2 mi South 8.1 mph - N/A   Unknown
11:00 PM 39 °F - 35 °F 81% 29.75 in 14 mi South 8.9 mph - -   Scattered Clouds
11:25 PM 39.2 °F 33.6 °F 35.6 °F 87% 29.74 in 6.2 mi South 8.1 mph - N/A   Unknown
11:55 PM 39.2 °F 33.0 °F 33.8 °F 81% 29.71 in 6.2 mi South 9.2 mph - N/A   Unknown